Regional Weather Roundup
Issued by NWS

Home | Current Version | Previous Version | Graphics & Text | Print | Product List | Glossary On
Versions: 1 2 3 4 5 6 7 8 9 10 11 12 13 14 15 16 17 18 19 20 21 22 23 24 25 26 27 28 29 30 31 32 33 34 35 36 37 38 39 40 41 42 43 44 45 46 47 48 49 50
772
ASUS43 KBIS 130910
RWRND

NORTH DAKOTA REGIONAL WEATHER ROUNDUP
NATIONAL WEATHER SERVICE BISMARCK ND
300 AM CST SAT FEB 13 2016

NOTE: "FAIR" INDICATES FEW OR NO CLOUDS BELOW 12,000 FEET WITH NO
SIGNIFICANT WEATHER AND/OR OBSTRUCTIONS TO VISIBILITY.


NDZ001>003-009>011-017-131000-
NORTHWEST NORTH DAKOTA

CITY           SKY/WX    TMP DP  RH WIND       PRES   REMARKS
WILLISTON      LGT SNOW  13   7  77 SE9       30.22F WCI   1
MINOT          CLOUDY     7  -5  57 SE13      30.36F WCI  -9
MINOT AFB      CLOUDY     6  -3  67 SE17      30.36F WCI -13
$$

NDZ018>021-031>035-040>046-131000-
SOUTHWEST NORTH DAKOTA

CITY           SKY/WX    TMP DP  RH WIND       PRES   REMARKS
BISMARCK       CLOUDY     8  -1  66 SE12      30.43F WCI  -7
DICKINSON      CLOUDY    11   6  81 SE20      30.18F WCI  -7
GARRISON         N/A      6  -2  69 SE15      30.34F WCI -12
HETTINGER ARPT CLOUDY    14   9  80 SE17      30.22F WCI  -3
$$

NDZ004>008-012>016-024-026-027-054-131000-
NORTHEAST NORTH DAKOTA

CITY           SKY/WX    TMP DP  RH WIND       PRES   REMARKS
GRAND FORKS    CLOUDY    -8 -14  74 S3        30.63F
GRND FRKS AFB  CLOUDY   -10 -16  75 S2        30.61F
DEVILS LAKE    CLOUDY   -12 -16  82 S6        30.52F WCI -26
$$

NDZ022-023-025-028>030-036>039-047>053-131000-
SOUTHEAST NORTH DAKOTA

CITY           SKY/WX    TMP DP  RH WIND       PRES   REMARKS
FARGO          CLOUDY    -8 -15  71 CALM      30.64F
JAMESTOWN      CLOUDY    -5 -12  72 SE8       30.52F WCI -20
$$





USA.gov is the U.S. government's official web portal to all federal, state and local government web resources and services.